Other Public Products
Issued by NWS Grand Forks, ND

Home | Current Version | Previous Version | Graphics & Text | Print | Product List | Glossary On
Versions: 1 2 3 4 5 6 7 8 9 10 11 12 13 14 15 16 17 18 19 20 21 22 23 24 25 26 27 28 29 30 31 32 33 34 35 36 37 38 39 40 41 42 43 44 45 46 47 48 49 50
000
FPUS83 KFGF 301931
OPUFGF
PRAIRIE TO PINES WEATHER ROUNDUP
NATIONAL WEATHER SERVICE EASTERN NORTH DAKOTA/GRAND FORKS ND
200 PM CDT WED JUL 30 2014

 **SATELLITE DATA USED TO AUGMENT SKY COVER AT AUTOMATED STATIONS**
 *****  WEATHER ACROSS EASTERN NORTH DAKOTA  *****

CITY           SKY/WX    TMP DP  RH WIND       PRES   REMARKS
GRAND FORKS    MOSUNNY   80  57  45 N6        30.08F
GRAND FORKS AF MOSUNNY   78  58  49 N5        30.09F
GRAND CITY NWS   N/A     70 N/A N/A VRB9        N/A
BUXTON           N/A     83  53  35 NW8         N/A
DEVILS LAKE    PTSUNNY   75  55  50 NW10      30.11S
FARGO          MOSUNNY   80  54  40 N12       30.09F
WAHPETON ARPT  PTCLDY    77  46  33 NW8       30.11S
$$

 *****  WEATHER ACROSS CENTRAL AND WESTERN NORTH DAKOTA  *****

CITY           SKY/WX    TMP DP  RH WIND       PRES   REMARKS
JAMESTOWN      SUNNY     76  47  35 CALM      30.13F
BISMARCK       MOSUNNY   81  55  40 N5        30.14F
MINOT          MOSUNNY   78  57  48 VRB6      30.14F
MINOT AFB      MOSUNNY   78  58  50 NW8       30.13F
GARRISON         N/A     75  59  57 CALM      30.15F
WILLISTON      SUNNY     82  49  31 NE16      30.17F
DICKINSON      MOSUNNY   78  52  40 CALM      30.17S
HETTINGER      MOSUNNY   80  50  34 VRB5      30.18F
$$

 *****  OTHER OBSERVATIONS NORTHEAST NORTH DAKOTA  *****

CITY           SKY/WX    TMP DP  RH WIND       PRES   REMARKS
WALHALLA       FAIR      77  50  38 NE9         N/A
LANGDON        FAIR      81  54  39 NW12      30.12S
CAVALIER       FAIR      79  54  41 NW8       30.08S
GRAFTON        FAIR      79  55  44 N12       30.07F
CANDO          MOCLDY    77  59  53 NW8       30.13S
FORT TOTTEN      N/A     80  59  47 NW3       29.95S
ROLLA            N/A     75  54  46 NW10      30.15S
RUGBY          FAIR      75  59  57 W8        30.13S
 ***** THE ABOVE OBSERVATIONS ARE NON NWS ARE NOT QUALITY
        CONTROLLED AND MAY MIS-REPORT RAIN FOR SNOW...
$$

 *****  OTHER OBSERVATIONS SOUTHEAST NORTH DAKOTA *****

CITY           SKY/WX    TMP DP  RH WIND       PRES   REMARKS
COOPERSTOWN    NOT AVBL
VALLEY CITY    FAIR      77  52  41 N3        30.13S
OAKES          NOT AVBL
GWINNER        PTCLDY    77  54  44 N8        30.13F
BUFFALO          N/A     78  46  33 N9          N/A
WYNDMERE       NOT AVBL
 ***** THE ABOVE OBSERVATIONS ARE NON NWS ARE NOT QUALITY
       CONTROLLED AND MAY MIS-REPORT RAIN FOR SNOW...
$$

  *****  WEATHER ACROSS NORTHERN MINNESOTA  *****

CITY           SKY/WX    TMP DP  RH WIND       PRES   REMARKS
FLAG ISLAND    SUNNY     75  54  46 NW10      30.02F
WARROAD        SUNNY     79  57  47 W12       30.05F
ROSEAU         SUNNY     79  61  53 NW10      30.06S
HALLOCK        SUNNY     79  52  38 W7        30.07S
THF RVR FALLS  SUNNY     75  54  46 W6        30.09S
HALSTAD          N/A     80  50  35 NW5         N/A
FOSSTON        MOSUNNY   75  55  50 W7        30.10S
BAUDETTE       SUNNY     77  56  48 NW14      30.05F
WASKISH        PTSUNNY   75  59  57 W9        30.05F
CROOKSTON      SUNNY     77  54  44 N7        30.09F
$$
  *****  WEATHER ACROSS CENTRAL AND WEST MINNESOTA  *****

CITY           SKY/WX    TMP DP  RH WIND       PRES   REMARKS
BEMIDJI        PTSUNNY   75  56  51 N13G21    30.08F
PARK RAPIDS    MOSUNNY   78  52  40 NW12G17   30.08F
WADENA         MOSUNNY   77  55  47 NW9       30.10S
DETROIT LAKES  SUNNY     75  52  43 N13       30.12S
MOORHEAD       SUNNY     77  57  50 NW5       30.10F
FERGUS FALLS   MOSUNNY   75  52  43 NW8       30.10F
ELBOW LAKE     FAIR      74  55  51 NW5       30.11F
MORRIS MN      MOSUNNY   79  57  47 NW6       30.11S
STAPLES        MOSUNNY   79  52  38 NW12      30.09S
WHEATON        MOSUNNY   75  54  46 W3        30.13S
$$
  *****  WEATHER ELSEWHERE ACROSS MINNESOTA  *****

CITY           SKY/WX    TMP DP  RH WIND       PRES   REMARKS
DULUTH         PTSUNNY   76  60  57 NW14      30.01F
INTRNTL FALLS  PTSUNNY   77  57  50 NW13      30.01F
ELY            LGT RAIN  72  57  60 NW7       29.97F
CLOQUET        MOSUNNY   77  57  50 NW9G17    30.02F
BRAINERD       MOSUNNY   77  55  46 N13       30.07F
HIBBING        MOSUNNY   77  57  50 NW15      30.02F
ALEXANDRIA     MOSUNNY   76  54  46 NW9       30.12F
SAINT CLOUD    SUNNY     82  50  32 W9G21     30.07F
MINNEAPOLIS    MOSUNNY   81  54  39 W9G20     30.06F
$$

  *****  WEATHER ACROSS SOUTH DAKOTA  *****

CITY           SKY/WX    TMP DP  RH WIND       PRES   REMARKS
SIOUX FALLS    MOSUNNY   75  55  49 VRB6      30.14F
BROOKINGS      NOT AVBL
WATERTOWN      MOSUNNY   75  54  47 NW8       30.14F
HURON          SUNNY     80  53  39 N7        30.13F
SISSETON         N/A     78  54  43 NE7       30.11F
ABERDEEN       MOSUNNY   78  56  46 NE7       30.12F
MITCHELL       SUNNY     79  55  43 E3        30.14F
PIERRE         SUNNY     84  54  35 VRB6      30.10F
MOBRIDGE       CLOUDY    81  56  42 E6        30.10F
RAPID CITY     SUNNY     82  53  36 NW8       30.18F
$$

  *****  SOME WEATHER IN NEARBY STATES *****

CITY           SKY/WX    TMP DP  RH WIND       PRES   REMARKS
GLASGOW MT     SUNNY     88  46  23 S9        30.13F
GREAT FALLS MT SUNNY     91  38  15 SE8       30.13F
CHEYENNE WY    LGT RAIN  58  54  86 SE3       30.38S
SCOTTSBLUFF NE CLOUDY    75  55  49 CALM      30.26F
OMAHA NE       MOSUNNY   79  52  38 VRB7      30.13F
DES MOINES IA  MOSUNNY   81  54  39 VRB3      30.10F
DAVENPORT IA   PTSUNNY   77  59  53 NW9       30.07F
CHICAGO IL     PTSUNNY   78  53  41 NW12G17   30.01F
EAU CLAIRE WI  MOSUNNY   74  55  51 VRB5      30.05F
LA CROSSE WI   SUNNY     76  58  53 NW7       30.06F
$$

  *****  SOME NATIONAL WEATHER *****

CITY           SKY/WX    TMP DP  RH WIND       PRES   REMARKS
LA GUARDIA NY  MOSUNNY   81  46  29 VRB6      30.00S
RALEIGH NC     PTSUNNY   75  63  64 N8        30.07F THUNDER
ATLANTA GA     MOSUNNY   81  57  43 VRB7      30.04F
NEW ORLEANS LA MOSUNNY   85  61  44 VRB7      30.04F
OKLAHOMA CITY  LGT RAIN  72  70  94 SE13      30.01F
ALBUQUERQUE NM MOSUNNY   81  55  40 SW7       30.21F
SALT LAKE CITY PTSUNNY   71  60  68 N9        30.21F
LOS ANGELES CA PTSUNNY   78  62  57 W12       29.96S
BOISE ID       MOSUNNY   89  50  26 NE6       30.13F
SEATTLE WA     MOSUNNY   72  57  59 W8        30.16S
$$

*** WEATHER ACROSS MANITOBA...SASKATCHEWAN AND ONTARIO ***
                ***ONTARIO***

CITY           SKY/WX    TMP DP  RH WIND       PRES   REMARKS
GERALDTON      PTSUNNY  N/A N/A N/A NW6         N/A
THUNDER BAY    PTSUNNY   70  61  73 W6        29.93F
SIOUX LOOKOUT  CLOUDY    72  52  49 N7        29.99F
TORONTO        PTSUNNY   66  59  77 W5        29.94S
BIG TROUT LK   MOSUNNY   70  46  43 N13G21    29.97F
PICKLE LAKE    PTSUNNY   70  46  43 N5G18     29.96S
DRYDEN         SUNNY     73  46  38 N9G17     30.00
KENORA         CLOUDY    75  57  53 NW13      30.03F
$$
                *** MANITOBA***

CITY           SKY/WX    TMP DP  RH WIND       PRES   REMARKS
BRANDON        MOSUNNY   79  57  47 NW6       30.11F
DAUPHIN        SUNNY     82  55  39 W8        30.08S
ISLAND LAKE    PTSUNNY   75  52  43 N8        30.05F
PILOT MOUND      N/A     75  54  46 NW7         N/A
THE PAS        MOSUNNY   82  54  36 NW6       30.06F
THOMPSON       MOSUNNY   79  55  44 NE6       30.06F
WINNIPEG       MOSUNNY   81  55  41 NW9       30.06F
LYNN LAKE      SUNNY     84  50  30 NE7       30.07F
CHURCHILL      SUNNY     68  54  60 NE10      30.11S
GILLAM         CLOUDY    73  52  46 NE5       30.08S
$$
                ***SASKATCHEWAN***

CITY           SKY/WX    TMP DP  RH WIND       PRES   REMARKS
ESTEVAN        MOSUNNY   75  54  46 E6        30.19F
KINDERSLEY     MOSUNNY   81  63  54 S9        30.06F
LLOYDMINSTER   MOSUNNY   79  64  61 E9        30.06S
PRINCE ALBERT  MOSUNNY   81  63  54 SE5       30.11F
REGINA         PTSUNNY   77  57  50 S10       30.15F
YORKTON        MOSUNNY   79  57  47 N7        30.14F


USA.gov is the U.S. government's official web portal to all federal, state and local government web resources and services.